ASTRA 1F

Last updated on Aug. 5, 2020, 5:33 a.m. UTC

1 23842U 96021A   20217.90743657  .00000122  00000-0  00000-0 0  9995
2 23842   0.0562 304.1950 0005762 196.3699 184.3355  1.00275028 30859
UTC
Height (km)
Latitude
Longitude
Inclination
Orbital Period
UTC large
Height (km)
Speed (km/s)
/
Latitude / Longitude
Inclination (degrees)
Orbital Period (minutes)
Azimuth
Elevation
Range (km)
Doppler Factor
iOS Compass Heading
iOS Angle

Next 30 passes for location: Hong Kong

Rise time Rise Azimuth (degrees) Set time Set Azimuth (degrees) Duration Max altitude (degrees)

No matching passes for this satellites